Flag for Germany Weather past 2 weeks in Schloss Holte-Stukenbrock, North Rhine-Westphalia, Germany

Now
53 °F

Overcast.


Feels Like: 53 °F
Forecast: 39 / 51 °F
Wind: 2 mph from Northeast

Location: Bad Lippspringe

Current Time: Apr 27, 2015 at 1:12:02 AM

Latest Report: Apr 27, 2015 at 12:00 AM


Visibility: 3 mi

Pressure: 29.67 "Hg

Humidity: 94%

Dew point: 51 °F

Location of Schloss Holte-StukenbrockLocation

Historic Weather in Schloss Holte-Stukenbrock — Graph

°F

Schloss Holte-Stukenbrock temperature yesterday

Maximum temperature yesterday: 62 °F (at 4:00 PM)
Minimum temperature yesterday: 49 °F (at 2:00 AM)
Average temperature yesterday: 55 °F

Past Weeks' High & Low Weather Summary

 TemperatureHumidityPressure
High72 °F (Apr 15, 5:00 PM)98% (Apr 23, 6:00 AM)30.46 "Hg (Apr 23, 6:00 AM)
Low31 °F (Apr 18, 6:00 AM)24% (Apr 21, 5:00 PM)29.67 "Hg (Apr 27, 12:00 AM)
Average50 °F69%30.15 "Hg
* Reported Midnight between Apr 11 and Apr 12 — Midnight between Apr 26 and Apr 27, Schloss Holte-Stukenbrock, Weather by CustomWeather, © 2015

Note: Actual official high and low records may vary slightly from our data, if they occured in-between our weather recording intervals... More about our weather records

Advertising

Schloss Holte-Stukenbrock weather history for previous 24 hours

 ConditionsComfort  
Time TempWeatherWind HumidityBarometerVisibility
12:00 AM
Mon, Apr 27
53 °FOvercast.2 mph94%29.67 "Hg3 mi
11:00 PM
Sun, Apr 26
52 °FOvercast.2 mph97%29.69 "Hg2 mi
10:00 PM53 °FFog.1 mph97%29.70 "Hg2 mi
9:00 PM53 °FOvercast.1 mph95%29.68 "Hg7 mi
8:00 PM55 °FOvercast.1 mph92%29.69 "Hg9 mi
7:00 PM55 °FOvercast.2 mph93%29.69 "Hg7 mi
6:00 PM55 °FLight rain. Overcast.5 mph92%29.70 "Hg2 mi
5:00 PM62 °FOvercast.5 mph63%29.68 "Hg19 mi
4:00 PM62 °FOvercast.5 mph64%29.69 "Hg16 mi
3:00 PM62 °FOvercast.5 mph70%29.71 "Hg17 mi
2:00 PM61 °FScattered clouds.5 mph71%29.72 "Hg15 mi
1:00 PM60 °FPartly sunny.5 mph70%29.73 "Hg19 mi
12:00 PM58 °FOvercast.7 mph72%29.74 "Hg14 mi
11:00 AM57 °FOvercast.6 mph80%29.74 "Hg12 mi
10:00 AM56 °FOvercast.3 mph84%29.74 "Hg12 mi
9:00 AM54 °FOvercast.3 mph85%29.75 "Hg10 mi
8:00 AM52 °FLight rain. Overcast.2 mph94%29.75 "Hg4 mi
7:00 AM52 °FLight rain. Overcast.1 mph93%29.75 "Hg2 mi
6:00 AM52 °FLight rain. Overcast.2 mph90%29.75 "Hg6 mi
5:00 AM52 °FOvercast.1 mph88%29.75 "Hg7 mi
4:00 AM50 °FPassing clouds.1 mph91%29.77 "Hg6 mi
3:00 AM51 °FPassing clouds.2 mph90%29.78 "Hg6 mi
2:00 AM49 °FFog.1 mph92%29.78 "Hg4 mi
1:00 AM50 °FPassing clouds.2 mph92%29.78 "Hg5 mi
Weather by CustomWeather, © 2015

See weather overviewHow to use our weather pages